Flight Track Log - Related Links

Times and Time Zones

All times are in EDT time to prevent confusion due to time zone crossing. See the N8800G flight status page for this flight to view local times or setup timezone preferences in your user account.


Time Position Orientation Groundspeed Altitude Reporting Facility
EDT Latitude Longitude Course Direction KTS MPH feet Rate Location/Type
Fri 06:28:10 AM 43.6667 -79.6167 360° North 60 69 600  Level Toronto Center
Fri 06:30:07 AM 43.6667 -79.6167 180° South 20 23 600  Level Toronto Center
Fri 06:33:50 AM 43.6500 -79.6167 180° South 10 12 600  Level Toronto Center
Fri 06:35:50 AM 43.6500 -79.6167 90° East 20 23 600  Level Toronto Center
Fri 06:39:50 AM 43.6500 -79.6167 90° East 20 23 600 150 Level Toronto Center
Fri 06:45:50 AM 43.6667 -79.5667 65° Northeast 130 150 2,100 471 Climbing Toronto Center
Fri 06:46:50 AM 43.7000 -79.5167 47° Northeast 190 219 3,900 2,050 Climbing Toronto Center
Fri 06:47:50 AM 43.7000 -79.4333 90° East 250 288 6,200 2,350 Climbing Toronto Center
Fri 06:48:50 AM 43.6333 -79.3833 152° Southeast 280 322 8,600 2,350 Climbing Toronto Center
Fri 06:49:50 AM 43.5667 -79.4333 209° Southwest 300 345 10,900 1,950 Climbing Toronto Center
Fri 06:50:50 AM 43.5000 -79.5333 227° Southwest 330 380 12,500 1,500 Climbing Toronto Center
Fri 06:51:50 AM 43.4500 -79.6333 235° Southwest 350 403 13,900 1,500 Climbing Toronto Center
Fri 06:52:50 AM 43.3833 -79.7500 232° Southwest 360 414 15,500 1,550 Climbing Toronto Center
Fri 06:53:50 AM 43.3167 -79.8333 222° Southwest 370 426 17,000 1,500 Climbing Toronto Center
Fri 06:54:50 AM 43.2500 -79.9500 232° Southwest 370 426 18,500 1,500 Climbing Toronto Center
Fri 06:55:50 AM 43.1833 -80.0667 232° Southwest 370 426 20,000 750 Climbing Toronto Center
Fri 06:56:50 AM 43.1167 -80.1833 232° Southwest 380 437 20,000  Level Toronto Center
Fri 06:57:50 AM 43.0500 -80.3000 232° Southwest 410 472 20,000  Level Toronto Center
Fri 06:58:50 AM 42.9667 -80.4333 230° Southwest 420 483 20,000  Level Toronto Center
Fri 06:59:50 AM 42.9000 -80.5500 232° Southwest 430 495 20,000  Level Toronto Center
Fri 07:01:07 AM 42.8019 -80.7389 235° Southwest 433 498 20,000  Level Cleveland Center
Fri 07:02:07 AM 42.7267 -80.8603 230° Southwest 433 498 20,000  Level Cleveland Center
Fri 07:03:07 AM 42.6928 -81.0097 253° West 411 473 20,000  Level Cleveland Center
Fri 07:04:07 AM 42.6775 -81.1536 262° West 393 452 20,000  Level Cleveland Center
Fri 07:05:07 AM 42.6581 -81.3003 260° West 393 452 20,000  Level Cleveland Center
Fri 07:06:07 AM 42.6425 -81.4442 262° West 393 452 20,000  Level Cleveland Center
Fri 07:07:07 AM 42.6244 -81.5933 261° West 393 452 20,000  Level Cleveland Center
Fri 07:08:07 AM 42.6108 -81.7200 262° West 393 452 20,000 -150 Level Cleveland Center
Fri 07:09:07 AM 42.5906 -81.8775 260° West 393 452 19,700 -950 Descending Cleveland Center
Fri 07:10:07 AM 42.5722 -82.0211 260° West 393 452 18,100 -1,600 Descending Cleveland Center
Fri 07:11:07 AM 42.5558 -82.1561 261° West 383 441 16,500 -1,520 Descending Cleveland Center
Fri 07:11:22 AM 42.5553 -82.1869 269° West 375 432 16,200 -1,600 Descending Cleveland Center
Fri 07:12:07 AM 42.5392 -82.2908 258° West 376 433 14,900 -1,701 Descending Cleveland Center
Fri 07:12:29 AM 42.5342 -82.3497 263° West 359 413 14,300 -1,500 Descending Cleveland Center
Fri 07:13:07 AM 42.5225 -82.4228 258° West 366 421 13,400 -1,475 Descending Cleveland Center
Fri 07:13:30 AM 42.5175 -82.4761 263° West 343 395 12,800 -1,300 Descending Cleveland Center
Fri 07:14:07 AM 42.5039 -82.5517 256° West 360 414 12,100 -787 Descending Cleveland Center
Fri 07:14:31 AM 42.4883 -82.5992 246° West 354 407 12,000 -100 Descending Cleveland Center
Fri 07:15:07 AM 42.4619 -82.6714 244° Southwest 355 409 12,000  Level Cleveland Center
Fri 07:15:32 AM 42.4444 -82.7272 247° West 357 411 12,000  Level Cleveland Center
Fri 07:16:07 AM 42.4181 -82.7939 242° Southwest 361 415 12,000  Level Cleveland Center
Fri 07:16:33 AM 42.4003 -82.8494 247° West 362 417 12,000  Level Cleveland Center
Fri 07:17:07 AM 42.3761 -82.9133 243° Southwest 361 415 12,000  Level Cleveland Center
Fri 07:17:39 AM 42.3539 -82.9828 247° West 358 412 12,000  Level Cleveland Center
Fri 07:18:07 AM 42.3319 -83.0353 241° Southwest 361 415 12,000  Level Cleveland Center
Fri 07:18:40 AM 42.3136 -83.1047 250° West 352 405 12,000  Level Cleveland Center
Fri 07:19:07 AM 42.3042 -83.1606 257° West 355 409 12,000  Level Cleveland Center
Fri 07:19:41 AM 42.2919 -83.2386 258° West 345 397 12,000 -300 Level Cleveland Center
Fri 07:20:07 AM 42.2803 -83.2858 252° West 342 394 11,700 -871 Descending Cleveland Center
Fri 07:20:43 AM 42.2703 -83.3583 259° West 313 360 11,100 -700 Descending Cleveland Center
Fri 07:21:07 AM 42.2611 -83.4000 253° West 329 379 11,000 -500 Descending Cleveland Center
Fri 07:21:43 AM 42.2389 -83.4553 242° Southwest 267 307 10,600 -1,516 Descending Cleveland Center
Fri 07:22:38 AM 42.1872 -83.5117 219° Southwest 256 295 8,700 -2,069 Descending Cleveland Center
Fri 07:23:39 AM 42.1256 -83.5647 213° Southwest 260 299 6,600 -1,770 Descending Cleveland Center
Fri 07:24:40 AM 42.0669 -83.5733 186° South 234 269 5,100 -1,024 Descending Cleveland Center
Fri 07:25:42 AM 42.0811 -83.5069 74° East 190 219 4,500 -581 Descending Cleveland Center

Login

Don't have an account? Register now (free) for customized features, flight alerts, and more!